Weather History for Ely, MN

Change the Weather History Date:

Monday, February 4, 2013

  Actual Average Record
Temperature  
Mean Temperature -14 °F -  
Max Temperature 5 °F 22 °F 48 °F (2005)
Min Temperature -34 °F 1 °F -34 °F (2013)
Degree Days  
Heating Degree Days 80    
Moisture  
Dew Point -17 °F    
Average Humidity 68    
Maximum Humidity 85    
Minimum Humidity 56    
Precipitation  
Precipitation 0.00 in - - ()
Sea Level Pressure  
Sea Level Pressure 29.80 in    
Wind  
Wind Speed 2 mph (SSW)    
Max Wind Speed 9 mph    
Max Gust Speed -    
Visibility 9 miles    
Events Snow    
Averages and records for this station are not official NWS values.
T = Trace of Precipitation, MM = Missing Value Source: NWS Daily Summary

Daily Weather History Graph

Daily Weather History Graph

Search for Another Location

Airport:

Trip Planner

Search our weather history database for the weather conditions in past years. The results will help you decide how hot, cold, wet, or windy it might be!

Date:

Astronomy

Feb. 04, 2013 Rise Set
Actual Time 7:30 AM CST 5:13 PM CST
Civil Twilight 6:57 AM CST 5:46 PM CST
Nautical Twilight 6:20 AM CST 6:22 PM CST
Astronomical Twilight 5:44 AM CST 6:59 PM CST
Moon 2:11 AM CST (2/4) 11:30 AM CST (2/4)
Length of Visible Light 10h 48m
Length of Day
9h 43m
Last Quarter, 37% of the Moon is Illuminated
Feb 4
Last Quarter
Feb 10
New
Feb 17
First Quarter
Feb 25
Full
Mar 4
Last Quarter

Hourly Weather History & Observations

Time (CST) Temp. Windchill Dew Point Humidity Pressure Visibility Wind Dir Wind Speed Gust Speed Precip Events Conditions
12:13 AM -25.6 °F - -31.0 °F 76% 29.94 in 10.0 mi Calm Calm - N/A   Clear
12:32 AM -25.6 °F - -32.8 °F 69% 29.94 in 10.0 mi Calm Calm - N/A   Clear
12:53 AM -25.6 °F - -32.8 °F 69% - 10.0 mi Calm Calm - N/A   Clear
1:13 AM -25.6 °F - -32.8 °F 69% - 10.0 mi Calm Calm - N/A   Clear
1:33 AM -25.6 °F - -32.8 °F 69% - 10.0 mi Calm Calm - N/A   Clear
1:52 AM -25.6 °F - -32.8 °F 69% - 10.0 mi Calm Calm - N/A   Clear
2:13 AM -27.4 °F - -34.6 °F 69% - 10.0 mi Calm Calm - N/A   Clear
2:33 AM -27.4 °F - -34.6 °F 69% - 10.0 mi Calm Calm - N/A   Clear
2:52 AM -29.2 °F - -34.6 °F 75% - 10.0 mi Calm Calm - N/A   Clear
3:13 AM -29.2 °F - -34.6 °F 75% - 10.0 mi Calm Calm - N/A   Clear
4:53 AM -31.0 °F - -38.2 °F 68% - 10.0 mi Calm Calm - N/A   Clear
5:13 AM -31.0 °F - -38.2 °F 68% - 10.0 mi Calm Calm - N/A   Clear
5:32 AM -32.8 °F - -38.2 °F 75% - 10.0 mi Calm Calm - N/A   Clear
5:53 AM -32.8 °F - -38.2 °F 75% - 10.0 mi Calm Calm - N/A   Clear
6:13 AM -32.8 °F - -40.0 °F 68% - 10.0 mi Calm Calm - N/A   Clear
6:32 AM -32.8 °F - -40.0 °F 68% - 10.0 mi Calm Calm - N/A   Clear
6:53 AM -32.8 °F - -40.0 °F 68% - 10.0 mi Calm Calm - N/A   Clear
7:13 AM -32.8 °F - -40.0 °F 68% - 10.0 mi Calm Calm - N/A   Clear
7:32 AM -32.8 °F - -40.0 °F 68% - 10.0 mi Calm Calm - N/A   Clear
7:53 AM -34.6 °F - -41.8 °F 68% - 10.0 mi Calm Calm - N/A   Clear
8:13 AM -32.8 °F - -38.2 °F 75% - 10.0 mi Calm Calm - N/A   Clear
8:32 AM -29.2 °F - -36.4 °F 68% - 10.0 mi Calm Calm - N/A   Clear
8:53 AM -25.6 °F - -32.8 °F 69% - 10.0 mi Calm Calm - N/A   Clear
9:13 AM -18.4 °F -28.9 °F -23.8 °F 76% - 10.0 mi West 3.5 mph - N/A   Clear
9:33 AM -14.8 °F - -20.2 °F 77% 29.94 in 10.0 mi Calm Calm - N/A   Mostly Cloudy
9:52 AM -11.2 °F - -16.6 °F 77% 29.94 in 7.0 mi Calm Calm - N/A   Mostly Cloudy
10:13 AM -9.4 °F - -14.8 °F 77% 29.94 in 4.0 mi Calm Calm - N/A   Haze
10:33 AM -7.6 °F - -11.2 °F 84% 29.94 in 5.0 mi Calm Calm - N/A Snow Light Snow
10:52 AM -5.8 °F -18.4 °F -11.2 °F 77% 29.94 in 5.0 mi WNW 5.8 mph - N/A Snow Light Snow
11:13 AM -2.2 °F -10.4 °F -9.4 °F 71% 29.93 in 7.0 mi West 3.5 mph - N/A Snow Light Snow
11:33 AM -2.2 °F - -9.4 °F 71% 29.92 in 5.0 mi Calm Calm - N/A Snow Light Snow
11:52 AM -2.2 °F - -9.4 °F 71% 29.91 in 10.0 mi Calm Calm - N/A   Unknown
12:13 PM -0.4 °F -8.3 °F -9.4 °F 66% 29.90 in 10.0 mi SW 3.5 mph - N/A   Clear
12:33 PM 1.4 °F -9.9 °F -9.4 °F 61% 29.89 in 10.0 mi West 5.8 mph - N/A   Clear
12:52 PM 1.4 °F -8.3 °F -9.4 °F 61% 29.88 in 10.0 mi WSW 4.6 mph - N/A   Clear
1:13 PM 1.4 °F -9.9 °F -9.4 °F 61% 29.87 in 10.0 mi West 5.8 mph - N/A   Clear
1:33 PM 1.4 °F -8.3 °F -9.4 °F 61% 29.85 in 10.0 mi West 4.6 mph - N/A   Clear
1:52 PM 3.2 °F -7.8 °F -9.4 °F 56% 29.85 in 10.0 mi SW 5.8 mph - N/A   Clear
2:13 PM 3.2 °F -9.1 °F -7.6 °F 61% 29.85 in 10.0 mi SSW 6.9 mph - N/A   Clear
2:33 PM 3.2 °F - -7.6 °F 61% 29.84 in 10.0 mi Calm Calm - N/A   Scattered Clouds
2:52 PM 3.2 °F -4.2 °F -7.6 °F 61% 29.84 in 10.0 mi SW 3.5 mph - N/A   Mostly Cloudy
3:13 PM 5.0 °F -2.1 °F -7.6 °F 56% 29.84 in 10.0 mi WSW 3.5 mph - N/A   Overcast
3:33 PM 3.2 °F -9.1 °F -7.6 °F 61% 29.83 in 10.0 mi WSW 6.9 mph - N/A   Overcast
3:52 PM 3.2 °F -9.1 °F -7.6 °F 61% 29.82 in 10.0 mi SW 6.9 mph - N/A   Overcast
4:13 PM 3.2 °F -11.3 °F -7.6 °F 61% 29.81 in 10.0 mi SW 9.2 mph - N/A   Overcast
4:33 PM 3.2 °F -7.8 °F -7.6 °F 61% 29.80 in 10.0 mi SW 5.8 mph - N/A   Overcast
4:52 PM 3.2 °F -7.8 °F -5.8 °F 66% 29.79 in 10.0 mi SSW 5.8 mph - N/A   Overcast
5:13 PM 3.2 °F -6.2 °F -5.8 °F 66% 29.78 in 10.0 mi SSW 4.6 mph - N/A   Overcast
5:33 PM 3.2 °F -6.2 °F -5.8 °F 66% 29.77 in 10.0 mi SSW 4.6 mph - N/A   Overcast
5:53 PM 3.2 °F -4.2 °F -5.8 °F 66% 29.77 in 10.0 mi SSW 3.5 mph - N/A   Overcast
6:12 PM 3.2 °F -4.2 °F -5.8 °F 66% 29.75 in 10.0 mi South 3.5 mph - N/A   Overcast
6:33 PM 3.2 °F -4.2 °F -5.8 °F 66% 29.76 in 10.0 mi SSW 3.5 mph - N/A   Overcast
6:53 PM 3.2 °F -4.2 °F -5.8 °F 66% 29.76 in 10.0 mi SSW 3.5 mph - N/A   Overcast
7:12 PM 3.2 °F -4.2 °F -5.8 °F 66% 29.75 in 10.0 mi SSW 3.5 mph - N/A   Overcast
7:33 PM 3.2 °F -4.2 °F -5.8 °F 66% 29.75 in 10.0 mi South 3.5 mph - N/A   Overcast
7:53 PM 3.2 °F -4.2 °F -7.6 °F 61% 29.73 in 10.0 mi South 3.5 mph - N/A   Overcast
8:12 PM 3.2 °F - -5.8 °F 66% 29.72 in 10.0 mi Calm Calm - N/A   Overcast
8:33 PM 3.2 °F -6.2 °F -7.6 °F 61% 29.72 in 10.0 mi South 4.6 mph - N/A   Overcast
8:53 PM 3.2 °F -6.2 °F -7.6 °F 61% 29.71 in 10.0 mi South 4.6 mph - N/A   Overcast
9:12 PM 5.0 °F -5.6 °F -5.8 °F 61% 29.70 in 10.0 mi South 5.8 mph - N/A   Overcast
9:33 PM 5.0 °F -4.1 °F -7.6 °F 56% 29.69 in 10.0 mi South 4.6 mph - N/A   Overcast
9:53 PM 5.0 °F -2.1 °F -5.8 °F 61% 29.69 in 5.0 mi South 3.5 mph - N/A Snow Light Snow
10:12 PM 5.0 °F -2.1 °F -4.0 °F 66% 29.68 in 4.0 mi South 3.5 mph - N/A Snow Light Snow
10:27 PM 5.0 °F -4.1 °F -2.2 °F 72% 29.66 in 3.0 mi SSE 4.6 mph - N/A Snow Light Snow
10:53 PM 3.2 °F -6.2 °F -0.4 °F 85% 29.65 in 1.8 mi SSE 4.6 mph - N/A Snow Light Snow
11:13 PM 3.2 °F -9.1 °F -0.4 °F 85% 29.63 in 1.5 mi South 6.9 mph - N/A Snow Light Snow
11:33 PM 5.0 °F -6.9 °F 1.4 °F 85% 29.61 in 1.2 mi SSE 6.9 mph - N/A Snow Light Snow
11:52 PM 5.0 °F -8.1 °F 1.4 °F 85% 29.59 in 1.2 mi SSE 8.1 mph - N/A Snow Light Snow